TimeCST,TemperatureF,Dew PointF,Humidity,Sea Level PressureIn,VisibilityMPH,Wind Direction,Wind SpeedMPH,Gust SpeedMPH,PrecipitationIn,Events,Conditions,WindDirDegrees,DateUTC
12:15 AM,23.0,15.8,74,30.10,10.0,WSW,5.8,-,N/A,,Overcast,240,2012-12-30 06:15:00
7:35 AM,17.6,10.4,73,30.17,10.0,West,3.5,-,N/A,,Overcast,270,2012-12-30 13:35:00
7:55 AM,17.6,10.4,73,30.18,10.0,WSW,3.5,-,N/A,,Overcast,250,2012-12-30 13:55:00
8:15 AM,17.6,10.4,73,30.19,10.0,West,4.6,-,N/A,,Overcast,260,2012-12-30 14:15:00
8:35 AM,17.6,10.4,73,30.19,7.0,West,3.5,-,N/A,Snow,Light Snow,260,2012-12-30 14:35:00
8:55 AM,17.6,10.4,73,30.20,5.0,WSW,5.8,-,N/A,Snow,Light Snow,250,2012-12-30 14:55:00
9:15 AM,17.6,10.4,73,30.20,7.0,West,6.9,-,N/A,Snow,Light Snow,260,2012-12-30 15:15:00
9:35 AM,17.6,12.2,79,30.20,4.0,WSW,3.5,-,N/A,Snow,Light Snow,250,2012-12-30 15:35:00
9:55 AM,19.4,10.4,68,30.21,7.0,WSW,8.1,-,N/A,Snow,Light Snow,240,2012-12-30 15:55:00
10:15 AM,19.4,10.4,68,30.21,7.0,WSW,8.1,-,N/A,Snow,Light Snow,240,2012-12-30 16:15:00
10:35 AM,19.4,10.4,68,30.22,10.0,WSW,9.2,-,N/A,,Overcast,240,2012-12-30 16:35:00
10:55 AM,19.4,10.4,68,30.21,10.0,SW,6.9,-,N/A,,Mostly Cloudy,230,2012-12-30 16:55:00
11:15 AM,19.4,10.4,68,30.20,10.0,SW,8.1,-,N/A,,Scattered Clouds,230,2012-12-30 17:15:00
11:35 AM,19.4,10.4,68,30.20,10.0,WSW,6.9,-,N/A,,Scattered Clouds,240,2012-12-30 17:35:00
11:55 AM,19.4,10.4,68,30.19,10.0,West,5.8,-,N/A,,Clear,260,2012-12-30 17:55:00
12:15 PM,21.2,10.4,63,30.17,10.0,WSW,4.6,-,N/A,,Clear,240,2012-12-30 18:15:00
12:35 PM,21.2,10.4,63,30.16,10.0,SW,5.8,-,N/A,,Clear,220,2012-12-30 18:35:00
12:55 PM,21.2,10.4,63,30.15,10.0,WSW,6.9,-,N/A,,Clear,250,2012-12-30 18:55:00
1:15 PM,21.2,10.4,63,30.14,10.0,WSW,4.6,-,N/A,,Clear,250,2012-12-30 19:15:00
1:35 PM,21.2,10.4,63,30.14,10.0,SW,8.1,-,N/A,,Clear,230,2012-12-30 19:35:00
1:55 PM,21.2,10.4,63,30.13,10.0,SW,5.8,-,N/A,,Clear,230,2012-12-30 19:55:00
2:15 PM,21.2,10.4,63,30.11,10.0,SSW,4.6,-,N/A,,Clear,210,2012-12-30 20:15:00
2:35 PM,21.2,10.4,63,30.10,10.0,SW,3.5,-,N/A,,Clear,220,2012-12-30 20:35:00
2:55 PM,21.2,10.4,63,30.11,10.0,SW,5.8,-,N/A,,Clear,230,2012-12-30 20:55:00
3:15 PM,21.2,10.4,63,30.10,10.0,SW,6.9,-,N/A,,Clear,220,2012-12-30 21:15:00
3:35 PM,21.2,10.4,63,30.11,10.0,SW,3.5,-,N/A,,Clear,220,2012-12-30 21:35:00
3:55 PM,21.2,10.4,63,30.10,10.0,SW,4.6,-,N/A,,Clear,220,2012-12-30 21:55:00
4:15 PM,21.2,10.4,63,30.10,10.0,SW,3.5,-,N/A,,Clear,230,2012-12-30 22:15:00
4:35 PM,21.2,10.4,63,30.09,10.0,SW,3.5,-,N/A,,Clear,220,2012-12-30 22:35:00
4:55 PM,21.2,10.4,63,30.08,10.0,Calm,Calm,-,N/A,,Clear,0,2012-12-30 22:55:00
5:15 PM,19.4,10.4,68,30.08,10.0,Calm,Calm,-,N/A,,Clear,0,2012-12-30 23:15:00
5:35 PM,19.4,12.2,74,30.06,10.0,SSE,3.5,-,N/A,,Clear,160,2012-12-30 23:35:00
5:55 PM,17.6,10.4,73,30.07,10.0,SSW,3.5,-,N/A,,Clear,200,2012-12-30 23:55:00
6:15 PM,17.6,10.4,73,30.06,10.0,Calm,Calm,-,N/A,,Clear,0,2012-12-31 00:15:00
6:35 PM,17.6,10.4,73,30.06,10.0,South,3.5,-,N/A,,Clear,190,2012-12-31 00:35:00
6:55 PM,15.8,10.4,79,30.05,10.0,Calm,Calm,-,N/A,,Clear,0,2012-12-31 00:55:00
7:15 PM,15.8,10.4,79,30.04,7.0,Calm,Calm,-,N/A,,Clear,0,2012-12-31 01:15:00
7:35 PM,15.8,10.4,79,30.03,7.0,Calm,Calm,-,N/A,,Clear,0,2012-12-31 01:35:00
7:55 PM,15.8,10.4,79,30.01,7.0,SSW,3.5,-,N/A,,Clear,200,2012-12-31 01:55:00
8:15 PM,15.8,10.4,79,30.01,7.0,Calm,Calm,-,N/A,,Mostly Cloudy,0,2012-12-31 02:15:00
8:35 PM,17.6,10.4,73,30.00,7.0,Calm,Calm,-,N/A,,Overcast,0,2012-12-31 02:35:00
8:55 PM,17.6,12.2,79,29.99,10.0,SW,3.5,-,N/A,,Overcast,220,2012-12-31 02:55:00
9:15 PM,17.6,12.2,79,29.99,10.0,SW,4.6,-,N/A,,Overcast,230,2012-12-31 03:15:00
9:35 PM,17.6,12.2,79,29.98,7.0,Calm,Calm,-,N/A,,Overcast,0,2012-12-31 03:35:00
9:55 PM,17.6,12.2,79,29.96,7.0,Calm,Calm,-,N/A,,Scattered Clouds,0,2012-12-31 03:55:00
10:15 PM,15.8,12.2,86,29.96,7.0,Calm,Calm,-,N/A,,Scattered Clouds,0,2012-12-31 04:15:00
10:35 PM,15.8,12.2,86,29.94,7.0,Calm,Calm,-,N/A,,Mostly Cloudy,0,2012-12-31 04:35:00
10:55 PM,15.8,12.2,86,29.93,7.0,Calm,Calm,-,N/A,,Overcast,0,2012-12-31 04:55:00
11:15 PM,17.6,12.2,79,29.92,7.0,Calm,Calm,-,N/A,,Overcast,0,2012-12-31 05:15:00
11:35 PM,17.6,14.0,86,29.91,7.0,Calm,Calm,-,N/A,,Overcast,0,2012-12-31 05:35:00
11:55 PM,19.4,14.0,80,29.90,7.0,Calm,Calm,-,N/A,,Overcast,0,2012-12-31 05:55:00